Orbital elements:
    C/2007 N3 (Lulin)
Epoch 2009 Jan. 9.0 TT = JDT 2454840.5
T 2009 Jan. 10.66551 TT                                 MPC
q   1.2125523            (2000.0)            P               Q
z  +0.0000043      Peri.  136.85390     -0.92916054     -0.36953038
 +/-0.0000079      Node   338.53392     -0.34642777     +0.86057082
e   0.9999948      Incl.  178.37278     -0.12902902     +0.35052129
Residuals in seconds of arc
070711 D35  0.2+  0.2+    070809 850  0.4+  0.7-    070913 704  0.0   0.1+
070711 D35  0.1-  0.2+    070809 850  0.2+  0.4-    070913 704  0.0   0.2+
070711 D35  0.4+  0.2+    070809 428  0.7-  0.5-    070913 704  0.2-  0.3+
070713 470  0.2+  0.2+    070809 428  0.3+  0.1-    070913 423  1.1+  0.4+
070713 470  0.2+  0.1+    070810 850  0.2+  0.1-    070913 423  0.4+  0.4-
070713 474  0.1-  0.3+    070810 850  1.6-  1.4-    070914 423  0.1+  0.1+
070713 474  0.2-  0.2+    070810 850  0.0   0.1-    070914 423  0.3-  0.1+
070713 474  0.3-  0.3+    070810 850  0.2-  0.6-    070915 157  0.2-  0.6-
070713 D35  0.1+  0.1+    070810 428  0.7-  0.1+    070915 130  0.1+  0.2+
070713 D35  0.5+  0.5+    070810 372  0.4+  0.1+    070915 130  0.0   0.0
070713 D35  0.6+  0.1+    070810 428  0.4+  0.2-    070915 130  0.2-  0.1-
070713 D35  0.1+  0.3+    070810 A02 (1.5+  2.5+)   070915 130  0.4+  0.5-
070713 D35  0.0   0.1-    070811 232  0.3+  0.0     070916 704  0.2+  0.7+
070713 D35  0.0   0.1-    070811 232  0.3+  0.1-    070916 704  0.1-  0.9+
070713 D35  0.1-  0.1-    070811 232  0.0   0.2-    070916 704  0.3+  0.3+
070713 D35  0.1+  0.2-    070811 A02  0.1-  0.4-    070916 704  0.3+  0.3+
070713 D35  0.1+  0.1-    070811 A02  0.3+  0.4-    070916 704  0.5+  0.9+
070713 D35  0.3+  0.1+    070811 A02  0.6+  0.1-    070916 J47  0.4+  0.6-
070713 A17  0.1+  0.5-    070811 699  0.4-  0.7+    070916 J47  0.5+  0.3-
070713 A17  0.1-  0.1-    070811 699  0.1+  0.4+    070916 J47  0.2+  0.3+
070713 473  0.5-  0.9+    070811 699  0.5+  0.0     070918 400  0.1-  0.1+
070713 A17  0.0   0.2+    070812 850  0.1+  0.0     070918 400  0.1+  0.1-
070713 198  0.1+  0.3+    070812 850  0.1-  1.0+    070918 400  0.1+  0.1-
070713 473  0.3+  0.3+    070812 850  0.0   0.3-    070919 704  0.3+  0.6+
070713 198  0.0   0.3+    070812 850  0.1-  0.1+    070919 704  0.2+  0.3+
070713 198  0.0   0.2+    070812 D88  0.5-  0.1+    070919 704  0.4+  0.3+
070714 470  1.2-  0.0     070812 D88  0.2-  0.1-    070919 704  0.1+  0.1+
070714 470  0.4-  0.3+    070812 D88  0.1+  0.8-    070919 704  0.1+  0.6+
070714 151  1.3-  0.6+    070812 D29  0.2+  0.2-    070920 B42  0.0   0.3-
070714 151  0.9-  0.5+    070812 D29  0.7-  0.0     070920 B42  0.8+  0.3+
070714 151  0.7-  0.3+    070812 D29  0.1-  0.2-    070930 213  0.3+  0.2-
070714 H55  0.4-  0.2+    070812 D29  0.0   0.3-    070930 213  0.6+  0.2-
070714 H55  0.1+  0.4+    070812 215  0.7+  0.3-    071002 423  0.1-  0.7-
070714 H55  0.4-  0.4+    070812 215  0.6+  0.2-    071002 E12  0.0   0.3-
070714 151  0.5+  0.7-    070812 215  0.4+  0.2-    071002 E12  0.0   0.5-
070714 151  0.3-  0.3+    070813 428  0.2+  1.2-    071002 E12  0.0   1.0-
070714 151  0.1-  0.2-    070813 428  0.1+  0.6-    071003 423  0.5-  0.2+
070714 473  0.3+  0.8+    070813 232  0.2-  0.2+    071003 423  0.0   0.0
070714 198  0.7+  0.2+    070813 232  0.6-  0.3+    071004 G96  0.1+  0.2-
070714 198  0.5+  0.2+    070814 232  1.1-  0.1+    071004 G96  0.4-  0.1-
070714 198  0.5+  0.2+    070814 D88  0.9+  0.2-    071004 G96  0.0   0.1-
070714 A13  0.1-  0.5-    070814 D88  0.3-  0.4-    071004 G96  0.0   0.0
070715 473  0.7+  0.4-    070814 D88  0.3+  0.1-    071004 423  0.2+  0.6-
070715 A13  0.1+  0.2-    070814 372  0.1+  0.6-    071004 423  0.3-  0.1+
070715 204  0.0   0.1+    070814 157  0.6-  0.6-    071005 704  0.1+  0.5+
070715 473  0.0   0.3-    070814 157  0.2+  0.5-    071005 704  0.1-  0.3+
070715 473  0.5-  0.1-    070815 704  0.2+  0.7+    071005 704  0.1+  0.2-
070715 204  0.0   0.1+    070815 704  0.0   0.2-    071005 704  0.4-  0.4-
070715 473  0.1-  0.4-    070815 704  0.0   0.8+    071006 232  0.1-  0.5-
070715 620  0.1+  0.1+    070815 704  0.0   0.6+    071006 232  0.2+  0.6-
070715 620  0.1+  0.2-    070816 372  0.4+  1.4+    071006 232  0.4+  0.6-
070715 620  0.4+  0.2+    070816 585  1.4-  0.3-    071007 349  0.8-  0.8-
070715 941  0.3-  0.0     070816 585  0.4+  0.3-    071007 349  0.6-  0.3-
070715 941  0.3-  0.1+    070816 585  0.9-  0.4-    071009 704  0.2+  0.0
070715 941  0.3-  0.1+    070816 585  0.1+  0.1-    071009 704  0.0   0.5+
070715 941  0.2-  0.1+    070816 585  0.4-  0.1-    071009 704  0.1+  0.5+
070715 941  0.2-  0.1+    070816 585  0.3-  0.0     071009 704  0.2-  0.5+
070715 E12  0.0   0.4-    070816 585  0.8-  0.5-    071009 704  0.2-  0.0
070715 E12  0.1-  0.2-    070817 157  0.3-  0.6-    071010 046  0.4+  0.6-
070716 673  0.3+  0.1+    070817 157  0.5+  0.4-    071010 046  0.1+  0.4-
070716 673  0.1+  0.1+    070818 G92  0.4-  0.4+    071010 046  0.6+  0.6-
070716 673  0.2+  0.3+    070818 G92  0.2-  0.7+    071010 046  0.3+  0.1-
070716 673  0.3-  0.1+    070818 G92  0.3-  0.2+    071011 H47  0.5-  0.6+
070717 595  0.6-  0.7+    070818 046  0.2-  0.0     071011 H47  0.2+  0.1+
070717 473  0.2+  0.4+    070818 046  0.1+  0.0     071012 699  0.2-  0.6-
070717 595  0.5-  0.6+    070818 046  0.5-  0.1+    071012 699  0.2-  0.1-
070717 473  0.2+  0.2+    070818 046  0.2-  0.3+    071012 699  0.6-  0.1-
070717 473  0.2+  0.1-    070818 046  0.2+  0.2+    071012 699  0.0   0.1+
070717 673  0.3+  0.3+    070818 046  0.1-  0.6+    071012 H47  0.0   0.0
070717 703  1.3-  1.2-    070821 699  0.2-  0.3+    071012 H47  0.1+  0.1+
070717 703  1.5-  0.9-    070821 699  0.3-  0.3+    071013 170  0.4+  0.3-
070717 673  0.1-  0.2+    070821 699  0.2+  0.3+    071013 170  0.4+  0.3-
070717 703  1.6-  0.7-    070821 699  0.2+  0.2+    071013 170  0.0   0.6-
070717 703  0.3-  0.8-    070821 585  0.4+  0.3-    071014 704  0.1-  1.2+
070717 673  0.1+  0.2+    070821 585  0.3-  0.3-    071014 704  0.6+  0.3+
070717 673  0.3+  0.1-    070821 585  1.0+  0.1-    071014 704  0.9+  0.6+
070718 673  0.2+  0.4+    070821 585  0.3+  0.8-    071014 H47  0.1-  0.1+
070718 673  0.2+  0.1+    070822 699  0.1-  0.3+    071014 704  0.7-  0.7+
070718 673  0.1+  0.2+    070822 699  0.1+  0.2+    071014 H47  0.0   0.1-
070718 673  0.1+  0.0     070822 699  0.2+  0.4+    071014 A77  0.2+  1.0+
070718 415  0.2+  0.1-    070822 213  0.0   0.5-    071014 A77  0.5-  0.5+
070718 415  0.8+  0.5-    070822 213  0.0   0.3-    071014 A77  0.5-  0.7+
070719 850  0.4+  0.4-    070822 213  0.1+  0.2-    071015 703  0.7+  0.3+
070719 850  1.3+  0.7-    070823 585  0.7+  0.5+    071015 703  0.1-  0.4+
070719 704  0.2-  0.4+    070823 585  0.3-  0.0     071015 703  0.8+  0.3+
070719 704  0.2-  0.4+    070823 585  1.2+  0.1-    071015 703  0.0   0.0
070719 850  0.2-  1.7-    070823 585  0.4+  0.2-    071015 J47  0.5-  0.1-
070719 704  0.2+  0.5+    070823 585  0.1+  0.4-    071015 J47  0.1-  0.0
070719 704  0.2-  0.2+    070823 585  0.2-  0.2-    071015 J47  0.4-  0.4+
070719 704  0.3+  0.7+    070823 473  0.2+  0.5-    071016 699 (2.4-  0.9+)
070719 673  0.0   0.3+    070823 473  0.5+  0.1-    071016 699  1.0-  0.2-
070719 673  0.1-  0.1+    070823 473  0.7+  0.3-    071016 699  1.0-  0.8+
070719 673  0.4+  0.0     070823 585  0.2+  0.0     071016 699  1.1-  0.9-
070719 673  0.2+  0.1+    070823 J70 (2.6-  1.4+)   071017 701  0.2-  0.0
070720 704  0.1+  0.7+    070823 J70  0.4-  0.2+    071017 701  0.1-  0.7-
070720 704  0.1-  0.6+    070823 J70  0.3-  0.0     071017 701  0.2-  0.1-
070720 673  0.3-  0.5+    070823 J70  0.5-  0.1-    071017 701  0.3-  0.2-
070720 704  0.8-  1.0+    070823 J70  0.3+  2.0-    071018 699  0.1-  0.9-
070720 673  0.3-  0.8+    070824 673  0.0   0.3-    071018 699  0.2-  0.2-
070720 673  0.1-  0.2+    070824 673  0.1+  0.1-    071018 699  0.0   0.1-
070720 704  0.2+  1.4+    070824 673  0.2-  0.2-    071018 699  0.2+  0.2-
070722 850  0.6+  0.1+    070824 673  0.0   0.2-    071026 G96  0.0   0.2+
070722 850  0.6+  0.6-    070825 147  0.2+  0.3-    071026 G96  0.1+  0.1+
070722 850  0.1-  0.5+    070825 147  0.1+  1.0-    071026 G96  0.2+  0.2+
070722 415  0.1+  0.3-    070901 232  0.4-  0.6-    071026 G96  0.2-  0.1+
070722 415  0.1+  0.0     070901 232  0.2-  0.8-    071031 704  0.9+  0.6+
070723 372  0.0   0.7+    070901 232  0.1+  1.0-    071031 704  0.1-  0.2-
070725 415  0.0   0.0     070901 213  0.2-  0.2-    071031 704  0.4+  0.0
070725 415  0.2+  0.1-    070901 213  0.1-  0.0     071031 704  1.0-  0.8-
070726 673  0.3+  0.3+    070901 213  0.2-  0.2+    071031 J76  0.1-  0.5+
070726 673  0.4+  0.5+    070901 204  0.1+  0.1-    071031 J76  0.1+  0.3+
070726 673  0.1+  0.2+    070903 703  0.3-  0.1+    071031 J76  0.2+  0.5+
070727 213  0.0   0.3-    070903 703  0.7-  0.0     071101 704  1.1+  0.2+
070727 213  0.1+  0.1+    070903 703  0.1+  0.2-    071101 704  0.9+  0.9-
070727 213  0.1-  0.3-    070903 703  0.2-  0.2-    071101 704  0.4-  1.8+
070728 232  0.2+  0.6-    070903 J70  0.7-  0.0     071101 704  1.0-  0.4-
070728 232  0.2+  0.4-    070903 J70  0.8-  0.6+    071101 215  0.2-  0.2-
070728 232  0.2+  0.4+    070903 J70  1.7-  1.3+    071101 215  0.1-  0.3-
070804 232  0.9-  0.4-    070903 J70  0.0   0.2-    071101 215  0.2-  0.2-
070804 232  0.5-  0.3-    070903 J70  0.1-  0.1+    071101 232  0.1-  0.2-
070804 232  0.0   0.7-    070905 585  1.5+  1.3+    071101 232  0.2-  0.2-
070804 585  1.2+  0.4+    070905 585 (2.3+  1.9+)   071101 232  0.2-  0.2-
070804 585  0.2+  0.1+    070905 585  0.0   0.3+    071103 349  0.4+  0.3+
070804 585  0.3-  0.5-    070907 349  0.9+  1.2+    071103 349  0.2-  1.0+
070805 204  0.1-  0.1+    070907 473  0.2+  0.3-    071104 H47  0.0   0.1+
070805 147  0.8+  0.4+    070907 473  0.3+  0.6-    071104 H47  0.1+  0.0
070805 147  0.3-  0.5-    070907 473  0.0   0.6-    071104 213  0.1-  0.4+
070805 204  0.3-  0.0     070907 J51  0.3-  0.2-    071104 213  0.2+  0.5+
070805 246  0.5-  0.2+    070907 J51  0.3-  0.3+    071104 213  0.5+  0.3+
070805 246  0.2-  0.6+    070907 J51  0.0   0.4+    071105 704  1.0+  0.6+
070805 246  0.4+  0.4+    070908 349  0.3-  0.6+    071105 704  0.0   0.9+
070805 246  0.2+  0.5+    070908 349  0.1-  0.7+    071105 H47  0.1+  0.3+
070805 246  0.4+  0.3+    070908 349  0.1-  0.6+    071105 704  0.6+  0.5-
070805 246  0.4+  0.4+    070908 130  0.0   0.7-    071105 H47  0.4+  0.1+
070805 B01  0.4+  0.2-    070908 130  0.3+  0.7-    071105 704  0.7-  0.3-
070805 B01  0.0   0.4-    070908 130  0.2-  1.0-    071106 704  1.6+  0.8+
070805 B01  0.4-  0.0     070908 130  0.1+  0.8-    071106 704  0.7-  0.5-
070806 B01  0.0   0.2+    070908 204  0.1+  0.3-    071106 704  0.1+  0.7-
070807 428  0.5-  0.6-    070909 204  0.2+  0.2+    071106 704  0.2-  0.7-
070808 213  1.0-  0.2+    070909 J51  0.2-  0.5-    071106 704 (2.4-  0.7+)
070808 213  0.6-  0.2+    070909 J51  0.1-  0.1-    071107 699  0.9+  0.1-
070808 213  0.1-  0.3+    070909 J51  0.1+  0.1-    071107 699  0.2-  0.0
070809 704  0.2-  0.6+    070909 415  0.3+  0.4-    071107 699  0.0   0.3-
070809 704  0.4+  0.2+    070909 415  0.2+  0.2-    071107 699  0.3-  0.3-
070809 704  0.3+  0.2+    070911 G96  0.3-  0.0     071119 585  0.6-  0.7-
070809 704  0.3+  0.1+    070911 G96  0.1+  0.1-    071119 585  1.9-  0.8-
070809 850  0.3+  0.5-    070911 G96  0.1-  0.0     071231 349  0.9+  1.0+
070809 704  0.1+  0.0     070911 G96  0.2-  0.3-    080101 349  1.1-  1.6+
070809 850  0.1+  0.4-    070913 704  0.9+  0.7+

